Location: Bratislava
(48.1500°N, 17.1170°E)
Time: 14:14:58
(UTC+02:00)

ISS - Pass Details

Date: 28 February 2019
Orbit: 411 x 421 km, 51.6° (Epoch: 16 October)

Event Time Altitude Azimuth Distance (km) Brightness Sun altitude
Exits shadow 03:53:34 15° 111° (ESE) 1,202 -0.9 -27.5°
Drops below altitude 10° 03:54:43 10° 93° (E) 1,483 -0.2 -27.3°
Sets 03:57:19 0° 74° (ENE) 2,383 1.4 -26.9°
